Location: Haram ta Haram Freeway
(35.0583°N, 51.4202°E)
Time: 06:31:35
(UTC+04:30)

Hubble Space Telescope - Visible Passes

Search period start: 09 April 2020 00:00
Search period end: 19 April 2020 00:00
Orbit: 536 x 540 km, 28.5° (Epoch: 08 April)

Date Brightness Start Highest point End Pass type
(mag) Time Alt. Az. Time Alt. Az. Time Alt. Az.
09 Apr 2.0 20:13:39 10° SW 20:17:11 28° S 20:19:58 14° ESE visible
09 Apr 3.2 21:54:18 10° WSW 21:55:18 16° WSW 21:55:18 16° WSW visible
10 Apr 1.9 20:02:51 10° SW 20:06:28 30° S 20:10:00 10° ESE visible
10 Apr 2.8 21:43:38 10° WSW 21:45:20 20° SW 21:45:20 20° SW visible
11 Apr 1.9 19:52:05 10° WSW 19:55:45 31° S 19:59:25 10° ESE visible
11 Apr 2.4 21:33:00 10° WSW 21:35:20 24° SW 21:35:20 24° SW visible
12 Apr 2.3 21:22:22 10° WSW 21:25:18 25° SSW 21:25:18 25° SSW visible
13 Apr 2.3 21:11:48 10° WSW 21:15:05 23° SSW 21:15:15 23° S visible
14 Apr 2.5 21:01:17 10° WSW 21:04:20 20° SSW 21:05:12 19° S visible
15 Apr 2.7 20:50:51 10° WSW 20:53:35 17° SSW 20:55:10 14° S visible
16 Apr 3.0 20:40:32 10° SW 20:42:50 15° SSW 20:45:08 10° SSE visible
17 Apr 3.2 20:30:28 10° SW 20:32:04 12° SSW 20:33:39 10° S visible
